Regional Weather Roundup
Issued by NWS Sterling, VA

Home | Current Version | Previous Version | Graphics & Text | Print | Product List | Glossary On
Versions: 1 2 3 4 5 6 7 8 9 10 11 12 13 14 15 16 17 18 19 20 21 22 23 24 25 26 27 28 29 30 31 32 33 34 35 36 37 38 39 40 41 42 43 44 45 46 47 48 49 50
000
ASUS41 KLWX 240610
RWRLWX

REGIONAL WEATHER ROUNDUP
NATIONAL WEATHER SERVICE BALTIMORE MD/WASHINGTON DC
200 AM EDT FRI APR 24 2015

Note: "FAIR" indicates few or no clouds below 12,000 feet
with no significant weather and/or obstructions to visibility.
 TC=TEMPERATURE CELSIUS

 * =Non NWS site. Station does not report precipitation (e.g. rain,
    snow, etc.), thunder, or fog.

DCZ001-MDZ009-015-VAZ040>042-051-053>054-240700-
WASHINGTON METRO

CITY           SKY/WX    TMP DP  RH WIND       PRES   REMARKS
WASHINGTON NAT FAIR      46  21  37 NW12      29.96S
DULLES         MOCLDY    42  27  55 NW7       29.96S
ANDREWS AFB    FAIR      43  27  52 NW10      29.94S
FT BELVOIR     MOCLDY    45  28  51 NW6       29.96S
QUANTICO       CLOUDY    47  29  49 N12       29.97R
COLLEGE PARK*  MOCLDY    43  28  56 CALM      29.96R
LEESBURG*      CLOUDY    43  32  65 N7        29.97S
MANASSAS*      CLOUDY    45  30  57 N6        29.96S
GAITHERSBURG*  CLOUDY    39  25  56 NW7       29.98F

$$

MDZ006>007-011-014-240700-
BALTIMORE METRO

CITY           SKY/WX    TMP DP  RH WIND       PRES   REMARKS
BWI AIRPORT    MOCLDY    42  26  53 NW9       29.94S
MD SCIENCE CTR   N/A     44  24  45 MISG      29.95S
MARTIN STATE   MOCLDY    41  28  60 W9        29.96S
ANNAPOLIS      MOCLDY    46  30  53 NW12      29.94S
FORT MEADE*    CLOUDY    41  28  60 NW7       29.97S

$$

MDZ012-015-019>023-240700-
MARYLAND EASTERN SHORE

CITY           SKY/WX    TMP DP  RH WIND       PRES   REMARKS
OCEAN CITY     CLOUDY    44  30  57 NW6       29.93S
SALISBURY      CLOUDY    43  32  65 NW3       29.93S
BAY BRIDGE AP*   N/A    N/A N/A N/A NW13G24   29.95S
CAMBRIDGE*     FAIR      46  30  53 NW7G18    29.93S
EASTON*        FAIR      45  31  57 N14G23    29.97R

$$

MDZ017>025-240700-
SOUTHERN MARYLAND

CITY           SKY/WX    TMP DP  RH WIND       PRES   REMARKS
PATUXENT RIVER FAIR      45  29  53 N9        29.94S
ST INIGOES     FAIR      45  30  55 CALM      29.94S
LEONARDTOWN*   FAIR      43  28  56 CALM      29.96S

$$

MDZ003>005-240700-
NORTH CENTRAL MARYLAND

CITY           SKY/WX    TMP DP  RH WIND       PRES   REMARKS
FREDERICK*     CLOUDY    43  23  45 NW8       29.99S
HAGERSTOWN APT CLOUDY    39  22  50 NW14      29.96R
WESTMINSTER*   MOCLDY    39  21  48 NW10G16   29.93S

$$

MDZ501>502-240700-
WESTERN MARYLAND

CITY           SKY/WX    TMP DP  RH WIND       PRES   REMARKS
OAKLAND*       CLOUDY    28 N/A N/A NW9G18    29.94R WCI  20
CUMBERLAND*    MOCLDY    39  27  60 NW8       30.04R

$$

VAZ025>031-240700-
SHENANDOAH VALLEY

CITY           SKY/WX    TMP DP  RH WIND       PRES   REMARKS
WINCHESTER*    CLOUDY    43  23  45 NW5       29.96S
FRONT ROYAL*   CLOUDY    45  27  49 NW6       29.94S
LURAY*         CLOUDY    46  28  49 NW12G20   29.96R
NEW MARKET*    FAIR      46  22  39 NW5       29.95S
STAUNTON*      FAIR      43  24  48 CALM      29.98R
WAYNESBORO*    MOCLDY    44  24  45 NW9       29.95F

$$

WVZ021-048>050-054>055-240700-
EASTERN WEST VIRGINIA PANHANDLE

CITY           SKY/WX    TMP DP  RH WIND       PRES   REMARKS
MARTINSBURG    CLOUDY    41  25  53 NW17G26   29.97S
PETERSBURG*    FAIR      44  23  42 NW8G17    29.98S

$$

VAZ036>039-050-240700-
CENTRAL FOOTHILLS

CITY           SKY/WX    TMP DP  RH WIND       PRES   REMARKS
CHARLOTTESVILL FAIR      49  23  36 VRB6G20   29.95S
CULPEPER*      CLOUDY    50  25  37 NW7       29.96S
ORANGE*        MOCLDY    50  25  37 SW8       29.97S
GORDONSVILLE*  CLOUDY    48  24  38 CALM      29.95S
WARRENTON*     CLOUDY    45  34  63 CALM      29.95S

$$

VAZ055>057-240700-
NORTH AND CENTRAL PIEDMONT

CITY           SKY/WX    TMP DP  RH WIND       PRES   REMARKS
FREDERICKSBRG* CLOUDY    48  31  50 CALM      29.95R
STAFFORD*      CLOUDY    46  26  47 N7        29.99S

$$

NCZ024-NYZ072-PAZ021-071-VAZ022-071-240700-
OTHER REGIONAL OBSERVATIONS

CITY           SKY/WX    TMP DP  RH WIND       PRES   REMARKS
NEW YORK CITY  MOCLDY    41  17  38 NW9G21    29.86F
PHILADELPHIA   CLOUDY    42  22  44 NW16      29.91S
PITTSBURGH     CLOUDY    33  25  72 CALM      30.03R
ROANOKE        FAIR      46  22  38 NW13      30.00R
RICHMOND       FAIR      46  30  53 N3        29.95S
RALEIGH        FAIR      52  18  26 VRB5      29.97R

$$

ANZ530>537-240700-
MARINE OBSERVATIONS

STATION/POSITION TIME  TEMP    WIND        PRES
                       AIR SEA DIR/SP/G
                 (UTC) (F)     (DEG/KT/KT) (MB)
THOMAS PT LIGHT  0600   44 53  320/ 12/ 14 1014.6R
BALT KEY BRIDGE  0500   44     290/ 16/ 19 1013.8R
COVE POINT       0500   47     360/ 15/ 19 1014.4R
LEWISETTA        0500   49 59              1013.8R
SOLOMONS ISLAND  0512      57                N/A
PINEY POINT      0500           10/  4/  5   N/A

$$




USA.gov is the U.S. government's official web portal to all federal, state and local government web resources and services.